Regional Weather Roundup
Issued by NWS Cleveland, OH

Home | Current Version | Previous Version | Graphics & Text | Print | Product List | Glossary On
Versions: 1 2 3 4 5 6 7 8 9 10 11 12 13 14 15 16 17 18 19 20 21 22 23 24 25 26 27 28 29 30 31 32 33 34 35 36 37 38 39 40 41 42 43 44 45 46 47 48 49 50
000
ASUS41 KCLE 200210
RWRCLE
OHIO REGIONAL WEATHER ROUNDUP
NATIONAL WEATHER SERVICE WILMINGTON, OH
1000 PM EDT THU OCT 19 2017

NOTE: "FAIR" INDICATES FEW OR NO CLOUDS BELOW 12,000 FEET WITH NO
SIGNIFICANT WEATHER AND/OR OBSTRUCTIONS TO VISIBILITY.

OHZ001>008-015>018-024>027-034-035-043-044-200300-
   NORTHWEST OHIO

CITY           SKY/WX    TMP DP  RH WIND       PRES   REMARKS
DEFIANCE       FAIR      49  41  74 CALM      30.19R
FINDLAY        FAIR      57  47  69 W5        30.18R
TOLEDO EXPRESS FAIR      52  43  71 CALM      30.18R
TOLEDO EXEC    FAIR      54  41  61 CALM      30.18R
LIMA           FAIR      51  49  92 W3        30.19S
$$

OHZ009>014-019>023-028>033-038-089-200300-
   NORTHEAST OHIO

CITY           SKY/WX    TMP DP  RH WIND       PRES   REMARKS
CLE-HOPKINS    FAIR      58  50  75 W6        30.18R
CLE-LAKEFRONT  FAIR      65  55  70 W13       30.15R
CUY CO. ARPT   PTCLDY    63  55  77 W9        30.16R
LORAIN-ELYRIA  FAIR      57  45  64 W3        30.17R
ASHTABULA      FAIR      53  52  96 CALM      30.16R
AKRON-CANTON   FAIR      59  48  67 W5        30.18R
WOOSTER        FAIR      49  46  90 N6        30.18R
MANSFIELD      FAIR      60  49  66 W6        30.18S
YOUNGSTOWN     FAIR      56  48  74 CALM      30.17R
$$

OHZ042-051>053-060>062-070>072-077>081-200300-
  SOUTHWEST OHIO

CITY           SKY/WX    TMP DP  RH WIND       PRES   REMARKS
CINC-COVINGTON MOCLDY    58  52  80 S5        30.23R
CINC-LUNKEN    FAIR      55  53  93 CALM      30.24R
HAMILTON       FAIR      51  50  96 CALM      30.23R
DAYTON         FAIR      61  51  70 SW6       30.22S
WRIGHT-PAT AFB FAIR      56  51  82 SW5       30.20S
DAYTON GENERAL FAIR      57  50  77 S6        30.21S
WILMINGTON     FAIR      57  50  77 SW5       30.22S
$$

OHZ036-037-039>041-045>050-054>059-063>069-073>076-082>088-200300-
  CENTRAL AND SOUTHEAST OHIO

CITY           SKY/WX    TMP DP  RH WIND       PRES   REMARKS
COLUMBUS       FAIR      63  50  62 SW5       30.19S
OSU AIRPORT    FAIR      62  51  67 SW8       30.19F
BOLTON FIELD   FAIR      57  49  75 SW6       30.21S
RICKENBACK AFB FAIR      58  49  72 SW7       30.20S
NEWARK         FAIR      55  48  77 CALM      30.19S
MARION         FAIR      58  47  66 CALM      30.19S
LANCASTER      FAIR      59  49  69 SW5       30.21R
ZANESVILLE     FAIR      58  49  72 SW6       30.20R
NEW PHILLY     FAIR      64  49  57 CALM      30.19R
$$




USA.gov is the U.S. government's official web portal to all federal, state and local government web resources and services.